Location: Beddau
(51.5575°N, 3.3561°W)
Time: 02:53:32
(UTC+00:00)

Nadezhda 3 Rocket - Pass Details

Date: 03 March 2021
Orbit: 957 x 999 km, 82.9° (Epoch: 12 April)

Event Time Altitude Azimuth Distance (km) Brightness Sun altitude
Rises 19:10:39 0° 348° (NNW) 3,725 7.3 -12.1°
Reaches altitude 10° 19:13:10 10° 347° (NNW) 2,775 6.6 -12.5°
Maximum altitude 19:19:32 76° 264° (W) 1,035 4.3 -13.5°
Drops below altitude 10° 19:25:53 10° 180° (S) 2,763 6.3 -14.5°
Sets 19:28:24 0° 179° (S) 3,707 6.9 -14.9°
